Regional Weather Roundup
Issued by NWS Wakefield, VA

Home | Current Version | Previous Version | Graphics & Text | Print | Product List | Glossary On
Versions: 1 2 3 4 5 6 7 8 9 10 11 12 13 14 15 16 17 18 19 20 21 22 23 24 25 26 27 28 29 30 31 32 33 34 35 36 37 38 39 40 41 42 43 44 45 46 47 48 49 50
000
ASUS41 KAKQ 270710
RWRAKQ

REGIONAL WEATHER ROUNDUP
NATIONAL WEATHER SERVICE WAKEFIELD VA
200 AM EST TUE JAN 27 2015

Note: "fair" indicates few or no clouds below 12,000 feet with no
significant weather and/or obstructions to visibility. * = Denotes
station may not report precipitation (e.g., rain,snow,etc.),
thunder or fog.

VAZ042-051-052>054-056-270800-
NORTHERN VIRGINIA

CITY           SKY/WX    TMP DP  RH WIND       PRES   REMARKS
WASH NATIONAL  LGT SNOW  30  23  75 NW17      29.75F WCI  18
DULLES         CLOUDY    27  22  81 N13       29.75S WCI  16
FORT BELVOIR   LGT SNOW  28  25  86 NW8       29.76R FOG
QUANTICO       LGT RAIN  29  24  82 N16G24    29.76S WCI  17
FREDERICKSBRG* CLOUDY    31  28  91 N8G16     29.73S
STAFFORD*      CLOUDY    28  28 100 CALM      29.78R
WARRENTON      CLOUDY    29  28  96 N9        29.74S
CULPEPER*      MOCLDY    28  25  86 N7        29.75S
MANASSAS*      CLOUDY    28  27  93 N12G20    29.76S WCI  18
LEESBURG*      CLOUDY    28  28 100 N7        29.77S
WINCHESTER     CLOUDY    28  23  80 CALM      29.77S
FRONT ROYAL*   CLOUDY    27  23  86 CALM      29.76S
LURAY*         FLURRIES  28  28 100 CALM      29.75R
$$

VAZ048-049-060>072-079>083-270800-
CENTRAL AND SOUTH CENTRAL VIRGINIA

CITY           SKY/WX    TMP DP  RH WIND       PRES   REMARKS
RICHMOND       CLOUDY    31  28  89 N10       29.71R WCI  22
CHESTERFIELD*  CLOUDY    32  18  55 N7        29.72R
PETERSBURG*    CLOUDY    33  29  84 N8        29.72S
HANOVER        CLOUDY    30  26  85 VRB7      29.73S
TAPPAHANNOCK*  LGT SNOW  29  26  86 NW8G16    29.71S
QUINTON*       CLOUDY    30  26  85 N6G16     29.70F
CHARLOTTSVILLE CLOUDY    30  27  88 CALM      29.71S
GORDONSVILLE*  CLOUDY    28  24  82 CALM      29.72S
ORANGE*        CLOUDY    30  27  86 N7        29.74S
LOUISA*        CLOUDY    28  25  86 N6        29.71R
BUMPASS*       CLOUDY    30  24  79 N6        29.72S
FARMVILLE*     CLOUDY    33  33 100 CALM      29.71R
CREWE*         CLOUDY    31  28  87 N3        29.70S
FORT PICKETT*  CLOUDY    31  29  91 N9        29.70S
CHASE CITY*    CLOUDY    36  36 100 CALM      29.71R
CLARKSVILLE*   CLOUDY    34  34 100 N6        29.71R
SOUTH HILL*    CLOUDY    33  29  86 N12       29.76R WCI  24
LAWRENCEVILLE* PTSUNNY   32  30  92 N7        29.69S
EMPORIA*       CLOUDY    32  30  93 NW15      29.71S WCI  22
$$

VAZ088>098-270800-
SOUTHEAST VIRGINIA

CITY           SKY/WX    TMP DP  RH WIND       PRES   REMARKS
NORFOLK        LGT SNOW  33  30  88 N14G24    29.65R WCI  23
VIRGINIA BEACH LGT SNOW  35  31  85 NW21G28   29.63R FOG     WCI  24
NORFOLK NAVAL  LGT SNOW  35  29  78 NW16G23   29.67R
WEST POINT*    CLOUDY    32  28  83 NW8       29.72R
SALUDA*        CLOUDY    31  27  86 N14G22    29.67S WCI  20
NEWPORT NEWS   LGT RAIN  35  29  78 N14G20    29.67R
LANGLEY AFB    LGT SNOW  32  29  89 N16G22    29.66R FOG     WCI  21
FORT EUSTIS    FLURRIES  32  32 100 N9G18     29.66R
WILLIAMSBURG*    N/A     34  28  80 N13G18    29.69R WCI  25
HR EXEC AP*    CLOUDY    34  28  80 N5        29.68R
FRANKLIN*      CLOUDY    32  29  88 NW9G18    29.70R
WAKEFIELD      CLOUDY    32  27  81 NW10G18   29.70R WCI  24
$$

VAZ020-022-025-037-045-270800-
WEST CENTRAL AND SOUTHWEST VIRGINIA

CITY           SKY/WX    TMP DP  RH WIND       PRES   REMARKS
STAUNTON*      CLOUDY    29  26  89 NE5       29.74R FOG
WAYNESBORO*    CLOUDY    28  26  91 N5        29.70S
HOT SPRINGS VA CLOUDY    19  19 100 NW13G21   29.57S WCI   5
LYNCHBURG      CLOUDY    33  23  66 NW8       29.71S
DANVILLE       CLOUDY    36  25  64 N15       29.73R
SOUTH BOSTON*  CLOUDY    34  29  82 NW6       29.72R
MARTINSVILLE   CLOUDY    31  22  69 NW5       29.76R
ROANOKE        PTCLDY    29  19  66 NW8       29.76S
BLACKSBURG     PTCLDY    23  15  73 W8        29.75S
DUBLIN*        CLOUDY    26  18  74 W12       29.76S WCI  15
MARION*        CLOUDY    24  17  74 W12G20    29.78R WCI  13
HILLSVILLE*    PTCLDY    23  17  78 NW17G24   29.69S WCI   9
RICHLANDS*     CLOUDY    22  17  79 NW7       29.78S
WISE*          CLOUDY    25  23  93 W8        29.80F
ABINGDON*      CLOUDY    28  20  72 NW8       29.82S
$$

MDZ021>025-VAZ099-100-270800-
SOUTHERN MARYLAND AND THE DELMARVA PENINSULA

CITY           SKY/WX    TMP DP  RH WIND       PRES   REMARKS
PATUXENT RIVER LGT SNOW  28  24  85 NW20      29.69S FOG     WCI  15
BAY BRIDGE APT   N/A     30  23  74 N16       29.72R WCI  19
LEONARDTOWN    CLOUDY    28  25  86 NW7         N/A
DOVER          FLURRIES  28  26  93 NW15      29.67R WCI  17
GEORGETOWN     LGT SNOW  29  25  85 N12       29.65R FOG     WCI  19
EASTON         CLOUDY    30  28  92 N9G16     29.73R FOG
CAMBRIDGE      CLOUDY    32  28  86 CALM      29.68R
SALISBURY      LGT SNOW  32  27  81 NW15      29.65R WCI  22
OCEAN CITY     CLOUDY    31  27  85 N16G26    29.62R FOG     WCI  20
WALLOPS ISLAND CLOUDY    31  29  92 N10G23    29.63R WCI  22
ACCOMACK*      CLOUDY    32  28  86 N12G24    29.63S WCI  23
$$

NCZ012>017-030>032-270800-
NORTH CENTRAL AND EASTERN NORTH CAROLINA

CITY           SKY/WX    TMP DP  RH WIND       PRES   REMARKS
ROANOKE RAPIDS CLOUDY    36  32  87 N14G20    29.69R
RALEIGH        FLURRIES  38  28  67 VRB7      29.70S
ELIZABETH CITY CLOUDY    36  32  85 NW14      29.64R
AHOSKIE*       CLOUDY    35  31  87 N6        29.69R
EDENTON*       CLOUDY    36  33  90 N14       29.65R
CURRITUCK*     CLOUDY    36  32  87 NW9G20    29.64R
KILL DEVIL HLS CLOUDY    37  34  88 NW12G22   29.60R
MANTEO         CLOUDY    37  34  87 N13G24    29.61R
CAPE HATTERAS  CLOUDY    40  37  89 NW15G25   29.60R
TARBORO*       CLOUDY    39  33  81 NW10      29.70R
GOLDSBORO      CLOUDY    43  41  93 N13G23    29.66S
WASHINGTON     CLOUDY    39  35  84 NW9G16    29.66R
GREENVILLE     CLOUDY    41  36  81 N9        29.70R
NEW BERN       CLOUDY    45  37  73 N14G22    29.65R
WILMINGTON     CLOUDY    46  41  82 NW12      29.67R
$$

VAZ048-270800-
ELSEWHERE

CITY           SKY/WX    TMP DP  RH WIND       PRES   REMARKS
HARRISBURG PA  FLURRIES  26  20  77 NW13      29.75F WCI  15
BALTIMORE      FLURRIES  27  21  78 NW8       29.73S
ANNAPOLIS      CLOUDY    28  23  81 NW13      29.72S WCI  17
ANDREWS AFB    LGT SNOW  26  24  89 NW15      29.72S FOG     WCI  14
PHILADELPHIA   FLURRIES  26  19  74 N16       29.71R WCI  14
HENDERSON NC   LGT RAIN  34  32  93 NW7       29.71R
GREENSBORO     PTCLDY    33  22  63 NW7       29.71S
ROCKY MOUNT    CLOUDY    39  32  76 N15G25    29.69R
$$

VAZ100-270800-
MARINE

STATION/POSITION TIME  TEMP    WIND        PRES    WAVE   SWELL
                       AIR SEA DIR/SP/G            HT/PER HT/PER
                 (UTC) (F)     (DEG/KT/KT) (MB)    (FT/S) (FT/S)
BRANDYWINE LGT   0700           10/ 27/ 31   N/A
CAPE MAY NJ      0700   30 39  360/  5/ 12 1002.8R
LEWES DE         0700   31 38  360/ 20/ 25 1003.6R
15NM E FENWICK I 0700   33 41              1000.7R  14/10
OCEAN-CITY-INLET 0700   32 39   10/ 19/ 25 1002.5R
WACHAPREAGUE VA  0700   31 42  330/  8/ 15 1003.1R
THOMAS POINT MD  0700   28 37  340/ 16/ 18 1007.1S
GOOSES REEF MD   0700   29     VRB 19/ 23  1004.7S
COVE POINT MD    0700   27     340/ 21/ 25 1005.1S
SOLOMONS ISLAND  0700      39                N/A
BISHOPS HEAD MD  0700   30 37  330/ 12/ 17 1004.2R
PINEY POINT MD   0600          340/ 18/ 19   N/A
POTOMAC MD       0700   30     350/ 14/ 17 1004.0S
CAMBRIDGE MD     0700   30 37  340/ 16/ 19 1005.0S
LEWISETTA VA     0700   29 39  340/ 14/ 21 1005.2S
RAPPAHANNOCK LGT 0700          340/ 29/ 33 1003.9R
STINGRAY PT      0700   32     340/ 17/ 21 1005.0R
YORK RVR RNG VA  0700   33     350/ 23/ 27 1003.3R
YORKTOWN VA      0700   33 41  320/ 20/ 24 1004.1S
JAMESTOWN VA     0700   30     350/ 14/ 19   N/A
DOMINION TERM VA 0700   34     340/  5/ 10 1004.2R
KIPTOPEKE VA     0700      45  360/ 19/ 27   N/A
CHES BAY BRIDGE  0700   34 41  320/ 23/ 26 1003.3R
CAPE HENRY VA    0700   34     330/ 27/ 33 1001.9R
CHESAPEAKE LGHT  0600   35     330/ 29/ 31 1002.3R
WILLOUBY STN VA  0700   33     330/ 17/ 19 1004.5R
S CRANEY ISL VA  0700          330/ 14/ 22 1004.1R
CAPE HENRY BUOY  0700      45                N/A     8/11   3/11
1ST LANDING BUOY 0700   35     340/ 25/ 29 1003.0R
CAPE CHARLES BUO 0700      43                N/A     8/11   7/11
OFFSHORE WE BUOY 0700      47                N/A    11/11   8/11
64NM E OF VA BCH 0700   44 52  350/ 27/ 33  998.6R  13/11   7/11
DUCK PIER NC     0700   36 44  330/ 25/ 29 1001.3R
44100 DUCK FRF   0700      45                N/A     9/ 9   2/11
44056 DUCK FRF   0700      44                N/A     7/ 9   2/11
OREGON INLET NC  0700   38 47  330/ 18/ 24 1002.1R
HATTERAS NC      0700   42 50  320/ 21/ 24 1002.4R


USA.gov is the U.S. government's official web portal to all federal, state and local government web resources and services.